Regional Weather Roundup
Issued by NWS

Home | Current Version | Previous Version | Graphics & Text | Print | Product List | Glossary On
Versions: 1 2 3 4 5 6 7 8 9 10 11 12 13 14 15 16 17 18 19 20 21 22 23 24 25 26 27 28 29 30 31 32 33 34 35 36 37 38 39 40 41 42 43 44 45 46 47 48 49 50
000
ASUS43 KIND 260309
RWRIN

WEATHER ROUNDUP FOR INDIANA
NATIONAL WEATHER SERVICE INDIANAPOLIS IN
1100 PM EDT THU MAY 25 2017

NOTE: "FAIR" INDICATES FEW OR NO CLOUDS BELOW 12,000 FEET WITH NO
SIGNIFICANT WEATHER AND/OR OBSTRUCTIONS TO VISIBILITY.

* - STATION DOES NOT REPORT WEATHER SUCH AS PRECIPITATION OR FOG.

+ - STATION NOT QUALITY CONTROLLED BY THE NATIONAL WEATHER SERVICE.
    USE DATA WITH CAUTION...ESPECIALLY DEWPOINT AND RELATIVE
    HUMIDITY OBSERVATIONS.

INZ001>003-010>013-019-020-260400-
NORTHWEST INDIANA

CITY           SKY/WX    TMP DP  RH WIND       PRES   REMARKS
GARY /AIRPORT/ PTCLDY    55  50  82 CALM      29.77R
KNOX *+        CLEAR     52  46  82 W8        29.75R
LA PORTE +     CLEAR     50  48  94 W5        29.75R
MICHIGAN CITY+ CLEAR     46  46 100 SW3       29.75R
MONTICELLO +   MOCLDY    58  55  89 W6        29.75R
RENSSELAER +   MOCLDY    57  52  82 NW3       29.77R
VALPARAISO     CLEAR     52  50  93 W7        29.76R

$$

LMZ046-743>745-260400-
SOUTHERN LAKE MICHIGAN

STATION/POSITION TIME  TEMP    WIND        PRES    WAVE
                       AIR SEA DIR/SP/G            HT
                 (UTC) (F)     (DEG/KT/KT) (MB)    (FT)
BURNS HARBOR     0240   54     280/  7/  9 1008.1R
MICHIGAN CITY    0240   51     230/  9/ 10   N/A
5NW MICH CITY    0300   50 51  260/  8/ 10   N/A     2

$$

INZ004-005-014>016-021>024-260400-
NORTH CENTRAL INDIANA

CITY           SKY/WX    TMP DP  RH WIND       PRES   REMARKS
GOSHEN         CLEAR     54  50  86 W10       29.71R
LOGANSPORT +   CLEAR     55  54  94 W6        29.76R
PERU/GRISSOM   CLEAR     57  57 100 W8        29.74R
ROCHESTER +    CLEAR     57  54  88 W6        29.74R
SOUTH BEND     CLOUDY    50  49  96 W6        29.73R
WARSAW +       CLEAR     54  52  94 W8        29.72R

$$

INZ006>009-017-018-025>027-260400-
NORTHEAST INDIANA

CITY           SKY/WX    TMP DP  RH WIND       PRES   REMARKS
ANGOLA *+      MOCLDY    57  48  72 W8        29.68R
AUBURN +       MOCLDY    57  54  88 W6        29.69R
FORT WAYNE     PTCLDY    57  53  86 W10       29.71R
HUNTINGTON +   CLEAR     56  55  96 W8        29.72R
KENDALLVILLE + CLEAR     56  54  94 W8        29.70R

$$

INZ028-029-035-036-043>045-051>053-260400-
WEST CENTRAL INDIANA

CITY           SKY/WX    TMP DP  RH WIND       PRES   REMARKS
CRAWFORDSVL +  CLEAR     54  54 100 W3        29.78R
GREENCASTLE +  CLEAR     52  52 100 CALM      29.79R
LAFAYETTE      MOCLDY    58  55  90 W6        29.77R
TERRE HAUTE    CLEAR     57  55  93 CALM      29.78R

$$

INZ030>032-037>040-046>048-054>057-064-065-260400-
CENTRAL INDIANA

CITY           SKY/WX    TMP DP  RH WIND       PRES   REMARKS
CP ATTERBURY + CLEAR     55  52  88 W3        29.78R
FISHERS *+     PTCLDY    57  57 100 W6        29.77R
FRANKFORT +    MOCLDY    60  57  89 W7        29.78R
GREENWOOD *+   CLEAR     59  53  80 W6        29.78R
INDIANAPOLIS   CLEAR     57  53  86 W8        29.77R
-EAGLE CREEK   CLEAR     58  53  84 W5        29.77R
KOKOMO +       CLEAR     58  54  86 W10       29.76R
MARION +       CLEAR     55  54  94 W9        29.75R FOG
MT COMFORT *+  PTCLDY    57  54  88 W9        29.77R
SHELBYVILLE    CLEAR     60  53  77 W8        29.76R
ZIONSVILLE +   PTCLDY    57  54  91 W8        29.77R

$$

INZ033-034-041-042-049-050-058-059-260400-
EAST CENTRAL INDIANA

CITY           SKY/WX    TMP DP  RH WIND       PRES   REMARKS
MUNCIE         CLEAR     59  54  83 W7        29.74R
RICHMOND +     CLOUDY    57  54  88 W14       29.75R

$$

INZ060-061-067>069-081>083-085>088-260400-
SOUTHWEST INDIANA

CITY           SKY/WX    TMP DP  RH WIND       PRES   REMARKS
EVANSVILLE     CLEAR     62  54  74 W3        29.80R
HUNTINGBURG *+ CLEAR     61  55  81 SW5       29.80R
WASHINGTON +   PTCLDY    59  58  94 CALM      29.79R

$$

INZ062-063-066-070>080-084-089>092-260400-
SOUTH CENTRAL AND SOUTHEAST INDIANA

CITY           SKY/WX    TMP DP  RH WIND       PRES   REMARKS
BEDFORD +      CLEAR     55  54  94 CALM      29.78R
BLOOMINGTON    CLEAR     56  52  86 CALM      29.78R
MADISON *+     CLEAR     57  54  88 CALM      29.80R
NORTH VERNON + CLEAR     57  52  82 W5        29.78R
SEYMOUR +      CLEAR     57  55  94 W3        29.78R

$$





USA.gov is the U.S. government's official web portal to all federal, state and local government web resources and services.